Temp
-20 -20 -20 -21 -21 -20 -20 -19 -19 -19 -19 -18 -19 -18 -18 -18 -18 -18 -17 -17 -16 -16 -15 -15 -15 -15 -15 -15 -15 -14 -14 -14 -13 -13 -14 -15 -15 -14 -15 -15 -15 -14 -15
-21 -21 -21 -21 -21 -21 -21 -21 -21 -20 -20 -19 -19 -19 -19 -19 -19 -19 -19 -19 -18 -18 -18 -17 -16 -16 -16 -16 -16 -16 -15 -16 -15 -14 -15 -15 -15 -15 -15 -15 -15 -15 -15
-22 -22 -22 -21 -21 -22 -21 -21 -21 -20 -21 -21 -21 -20 -20 -20 -20 -20 -20 -20 -19 -19 -19 -19 -19 -18 -18 -17 -17 -17 -17 -17 -17 -16 -15 -16 -16 -16 -16 -16 -16 -15 -15
-22 -22 -22 -22 -22 -21 -22 -21 -21 -21 -22 -22 -22 -22 -21 -21 -21 -21 -21 -21 -21 -20 -20 -20 -20 -20 -20 -19 -18 -18 -18 -17 -18 -17 -16 -16 -16 -16 -17 -16 -16 -16 -16
-24 -24 -23 -23 -24 -24 -24 -24 -23 -23 -23 -23 -23 -23 -22 -22 -21 -21 -22 -22 -21 -21 -21 -20 -21 -21 -20 -20 -21 -21 -20 -19 -19 -18 -18 -18 -16 -16 -17 -17 -17 -18 -18
-27 -27 -27 -27 -27 -27 -27 -26 -26 -26 -26 -26 -25 -24 -23 -24 -23 -23 -23 -23 -23 -22 -21 -21 -21 -21 -21 -21 -21 -21 -21 -21 -21 -20 -20 -18 -18 -17 -17 -18 -18 -18 -18
-28 -28 -29 -29 -29 -29 -29 -28 -28 -27 -26 -26 -26 -26 -26 -25 -25 -24 -24 -24 -24 -23 -23 -22 -22 -22 -22 -22 -21 -21 -22 -21 -22 -22 -21 -20 -20 -19 -18 -18 -18 -18 -18
-30 -30 -30 -30 -30 -30 -30 -30 -29 -29 -28 -28 -28 -27 -27 -26 -26 -26 -26 -25 -25 -24 -24 -23 -23 -23 -23 -23 -22 -22 -22 -22 -22 -22 -22 -21 -21 -20 -20 -19 -19 -19 -19
-31 -31 -31 -31 -31 -30 -30 -30 -30 -30 -30 -29 -29 -29 -29 -28 -28 -28 -27 -27 -26 -25 -25 -24 -24 -23 -23 -24 -23 -23 -22 -22 -22 -22 -22 -22 -21 -20 -21 -20 -20 -19 -19
-31 -31 -31 -31 -31 -30 -30 -30 -30 -29 -29 -29 -29 -29 -29 -28 -28 -29 -29 -28 -27 -27 -26 -26 -25 -25 -24 -24 -24 -24 -23 -23 -23 -23 -22 -22 -22 -21 -21 -21 -20 -20 -20
-32 -31 -31 -31 -31 -30 -30 -30 -29 -29 -29 -29 -28 -29 -29 -28 -28 -28 -28 -28 -28 -27 -27 -27 -27 -27 -27 -26 -26 -25 -24 -23 -23 -23 -23 -23 -22 -22 -21 -21 -20 -20 -20
-32 -32 -32 -31 -31 -31 -31 -30 -30 -30 -30 -30 -30 -30 -30 -30 -29 -29 -29 -29 -28 -28 -27 -27 -27 -27 -27 -28 -28 -27 -27 -26 -25 -24 -23 -23 -23 -23 -22 -22 -21 -21 -20
-33 -34 -33 -32 -32 -32 -32 -32 -31 -31 -30 -31 -30 -30 -31 -31 -30 -30 -30 -29 -29 -30 -29 -29 -28 -27 -27 -27 -27 -28 -28 -28 -27 -26 -25 -24 -23 -23 -23 -23 -22 -22 -21
-35 -34 -33 -34 -34 -34 -33 -32 -31 -31 -31 -31 -31 -32 -31 -32 -33 -32 -31 -31 -30 -29 -29 -29 -29 -29 -29 -28 -28 -27 -28 -28 -28 -28 -27 -26 -26 -24 -24 -23 -23 -23 -22
-35 -35 -35 -35 -34 -34 -33 -31 -31 -30 -31 -31 -31 -32 -32 -33 -33 -33 -33 -32 -31 -31 -30 -30 -30 -29 -29 -29 -29 -28 -28 -28 -28 -28 -28 -28 -28 -27 -26 -25 -24 -24 -23
-36 -35 -35 -35 -34 -34 -33 -31 -31 -30 -30 -31 -32 -32 -33 -33 -33 -33 -33 -33 -33 -32 -31 -30 -31 -30 -30 -30 -30 -30 -30 -29 -29 -29 -28 -28 -29 -28 -28 -27 -27 -25 -25
-36 -35 -35 -35 -34 -33 -33 -32 -31 -32 -31 -31 -32 -32 -33 -33 -33 -33 -34 -34 -34 -33 -32 -32 -31 -31 -30 -30 -30 -31 -31 -31 -31 -30 -29 -29 -29 -29 -29 -28 -28 -27 -26
-36 -35 -35 -35 -34 -34 -33 -33 -32 -32 -31 -32 -32 -32 -32 -33 -33 -34 -34 -34 -35 -34 -33 -33 -32 -32 -31 -31 -31 -32 -33 -33 -32 -32 -31 -30 -30 -29 -29 -29 -29 -28 -28
-36 -35 -35 -35 -34 -34 -33 -33 -33 -32 -32 -32 -32 -32 -32 -33 -33 -33 -34 -34 -35 -35 -34 -34 -33 -33 -32 -32 -32 -33 -33 -34 -33 -33 -33 -32 -31 -30 -29 -29 -29 -29 -28
-36 -36 -35 -35 -34 -34 -34 -33 -33 -33 -32 -32 -32 -32 -33 -33 -33 -34 -34 -34 -35 -35 -35 -35 -34 -34 -33 -33 -33 -34 -34 -34 -34 -34 -33 -33 -32 -31 -30 -29 -29 -29 -29
-36 -36 -35 -35 -34 -34 -34 -33 -33 -33 -33 -33 -32 -32 -32 -33 -33 -33 -34 -34 -35 -36 -36 -36 -35 -35 -35 -35 -35 -35 -35 -35 -34 -34 -34 -33 -33 -32 -31 -30 -30 -30 -29
-36 -36 -35 -35 -35 -34 -34 -34 -33 -33 -33 -33 -33 -33 -33 -33 -33 -33 -34 -34 -34 -35 -36 -36 -36 -36 -36 -35 -35 -35 -35 -35 -35 -35 -34 -34 -33 -33 -32 -31 -31 -30 -30
-36 -36 -35 -35 -35 -34 -34 -34 -33 -33 -33 -33 -33 -33 -33 -33 -33 -33 -34 -34 -34 -35 -35 -36 -36 -36 -36 -36 -36 -36 -36 -35 -35 -35 -34 -34 -33 -33 -32 -32 -31 -31 -31
-36 -36 -35 -35 -35 -35 -34 -34 -34 -34 -33 -33 -33 -33 -33 -33 -33 -34 -34 -34 -34 -34 -35 -35 -36 -36 -37 -37 -37 -36 -36 -36 -36 -36 -36 -35 -34 -34 -33 -33 -32 -32 -31
-36 -36 -36 -35 -35 -35 -34 -34 -34 -34 -34 -34 -34 -34 -35 -35 -35 -35 -35 -34 -34 -34 -34 -34 -35 -35 -36 -36 -36 -36 -36 -36 -36 -35 -35 -35 -34 -33 -33 -32 -32 -31 -31
-36 -36 -36 -35 -35 -35 -34 -34 -34 -34 -34 -35 -35 -36 -36 -37 -37 -37 -36 -35 -35 -35 -34 -34 -35 -35 -35 -36 -35 -35 -35 -35 -35 -35 -35 -34 -33 -33 -32 -32 -31 -31 -31
Height
5624 5621 5619 5618 5616 5614 5612 5610 5608 5607 5607 5606 5606 5607 5607 5608 5610 5611 5612 5611 5614 5615 5616 5619 5622 5622 5625 5627 5628 5629 5631 5633 5637 5642 5648 5652 5656 5658 5659 5660 5661 5663 5666
5602 5598 5596 5594 5592 5591 5588 5586 5586 5584 5582 5584 5584 5582 5583 5582 5584 5586 5588 5588 5589 5590 5591 5594 5597 5598 5602 5603 5605 5607 5610 5611 5612 5619 5623 5628 5634 5637 5639 5641 5642 5644 5648
5577 5573 5571 5570 5568 5567 5565 5564 5562 5561 5558 5557 5556 5557 5558 5558 5558 5560 5562 5564 5565 5566 5566 5568 5572 5573 5577 5579 5581 5584 5586 5588 5590 5593 5599 5603 5610 5616 5620 5621 5624 5625 5627
5553 5550 5547 5544 5544 5540 5538 5536 5535 5534 5531 5530 5528 5530 5532 5533 5532 5533 5535 5538 5539 5540 5541 5542 5545 5548 5551 5551 5554 5559 5560 5564 5566 5571 5574 5579 5587 5594 5597 5600 5603 5606 5609
5524 5520 5516 5513 5511 5509 5507 5506 5505 5503 5500 5500 5501 5501 5502 5503 5504 5504 5504 5507 5509 5512 5514 5515 5518 5521 5524 5525 5528 5531 5533 5537 5540 5546 5550 5554 5563 5570 5577 5582 5583 5583 5586
5497 5493 5488 5485 5482 5479 5476 5475 5473 5471 5470 5469 5468 5469 5472 5472 5472 5469 5468 5470 5475 5480 5484 5487 5489 5493 5496 5498 5498 5503 5507 5511 5516 5519 5526 5533 5540 5544 5551 5557 5558 5559 5565
5473 5469 5465 5461 5458 5454 5450 5446 5442 5438 5438 5438 5438 5437 5438 5441 5441 5438 5435 5430 5434 5441 5448 5453 5457 5462 5467 5469 5471 5471 5476 5483 5489 5495 5500 5511 5512 5521 5525 5530 5536 5537 5544
5454 5448 5442 5437 5432 5427 5423 5419 5416 5411 5409 5407 5405 5402 5399 5405 5404 5399 5395 5390 5396 5402 5407 5414 5419 5429 5434 5437 5438 5441 5447 5453 5464 5466 5472 5487 5489 5492 5498 5504 5509 5514 5512
5435 5428 5421 5414 5409 5403 5398 5393 5388 5384 5382 5379 5377 5374 5368 5373 5369 5361 5354 5350 5354 5364 5370 5374 5379 5387 5399 5401 5401 5407 5416 5426 5433 5436 5444 5455 5461 5466 5474 5478 5486 5489 5496
5416 5409 5401 5393 5386 5380 5374 5369 5362 5356 5353 5349 5348 5343 5339 5339 5338 5329 5321 5314 5318 5325 5332 5337 5342 5347 5357 5359 5358 5366 5376 5401 5400 5404 5411 5424 5432 5439 5446 5455 5462 5468 5476
5397 5389 5380 5372 5365 5358 5352 5343 5337 5332 5327 5322 5318 5313 5308 5304 5303 5296 5291 5284 5283 5288 5296 5303 5309 5315 5318 5321 5322 5326 5342 5361 5361 5368 5379 5391 5402 5412 5419 5430 5438 5446 5450
5378 5369 5361 5352 5344 5335 5327 5320 5312 5306 5302 5299 5294 5291 5283 5277 5272 5266 5260 5254 5253 5254 5261 5267 5274 5279 5284 5288 5288 5295 5305 5314 5319 5331 5343 5359 5373 5383 5393 5400 5410 5417 5427
5359 5351 5342 5334 5325 5315 5307 5300 5295 5289 5286 5283 5277 5272 5265 5256 5249 5241 5234 5230 5229 5228 5230 5233 5237 5241 5245 5254 5261 5267 5272 5277 5284 5293 5308 5326 5340 5351 5356 5366 5377 5387 5397
5343 5334 5326 5319 5311 5302 5293 5285 5281 5277 5273 5267 5260 5254 5247 5236 5227 5218 5212 5207 5204 5205 5206 5208 5209 5211 5214 5220 5227 5236 5240 5246 5254 5265 5276 5292 5301 5311 5322 5335 5346 5357 5366
5328 5319 5313 5306 5299 5292 5283 5273 5268 5262 5257 5252 5245 5239 5232 5224 5214 5203 5193 5186 5181 5180 5179 5180 5183 5185 5187 5192 5196 5204 5213 5219 5224 5236 5247 5259 5268 5279 5291 5301 5312 5323 5333
5313 5307 5302 5296 5289 5282 5273 5265 5252 5248 5243 5237 5231 5224 5218 5210 5201 5190 5180 5171 5162 5156 5155 5154 5157 5160 5164 5168 5173 5178 5184 5192 5199 5208 5220 5230 5238 5250 5261 5271 5281 5295 5306
5300 5296 5292 5286 5280 5273 5265 5255 5247 5236 5229 5225 5219 5211 5204 5197 5189 5179 5168 5158 5149 5141 5136 5134 5134 5137 5143 5148 5153 5157 5163 5168 5174 5179 5190 5200 5211 5223 5234 5245 5257 5269 5279
5290 5286 5282 5277 5272 5264 5257 5249 5239 5232 5225 5217 5207 5201 5194 5186 5178 5169 5158 5148 5139 5130 5125 5121 5120 5120 5124 5130 5134 5139 5144 5147 5152 5159 5166 5176 5187 5198 5211 5225 5237 5246 5253
5279 5276 5273 5268 5263 5256 5249 5242 5233 5226 5218 5210 5202 5193 5185 5176 5169 5161 5151 5140 5132 5124 5118 5113 5110 5111 5113 5117 5121 5125 5129 5132 5137 5143 5149 5157 5167 5179 5192 5202 5212 5221 5230
5269 5267 5264 5260 5255 5249 5242 5235 5227 5220 5213 5205 5196 5188 5180 5172 5164 5155 5144 5134 5126 5119 5113 5108 5105 5104 5106 5108 5110 5113 5116 5119 5123 5128 5136 5143 5151 5161 5172 5182 5193 5202 5212
5260 5258 5255 5252 5247 5240 5234 5228 5220 5213 5205 5197 5189 5181 5173 5165 5158 5151 5143 5134 5124 5116 5110 5106 5102 5099 5098 5099 5101 5103 5106 5108 5111 5116 5123 5131 5138 5146 5156 5166 5175 5184 5195
5250 5249 5247 5243 5239 5233 5227 5220 5213 5206 5199 5191 5183 5175 5166 5159 5151 5145 5138 5131 5123 5116 5109 5104 5100 5097 5095 5095 5095 5095 5097 5100 5103 5108 5114 5119 5126 5134 5142 5151 5160 5169 5180
5240 5240 5238 5235 5231 5225 5220 5213 5206 5199 5191 5184 5177 5169 5161 5153 5146 5139 5134 5128 5122 5116 5110 5103 5099 5096 5094 5092 5091 5091 5092 5094 5097 5101 5106 5111 5117 5124 5131 5139 5148 5156 5166
5230 5231 5229 5227 5223 5218 5213 5206 5200 5192 5184 5176 5168 5161 5153 5146 5139 5133 5128 5124 5120 5115 5110 5105 5100 5096 5094 5091 5090 5088 5089 5091 5093 5096 5100 5105 5110 5116 5123 5130 5137 5145 5153
5221 5221 5221 5218 5215 5210 5205 5199 5192 5185 5177 5169 5161 5153 5145 5138 5132 5126 5121 5118 5115 5112 5108 5104 5101 5097 5094 5092 5090 5089 5088 5089 5090 5092 5095 5099 5104 5110 5116 5122 5128 5135 5142
5213 5213 5212 5210 5207 5203 5198 5192 5185 5178 5170 5162 5155 5148 5141 5135 5129 5123 5118 5113 5110 5108 5105 5103 5099 5096 5094 5092 5091 5089 5088 5088 5088 5090 5092 5096 5100 5104 5109 5114 5119 5124 5130
Wind_Speed
65 66 71 74 76 79 83 85 86 84 86 83 82 86 91 79 77 81 81 79 82 84 86 85 84 83 83 82 82 83 83 83 83 80 75 71 69 67 65 64 65 66 66
83 84 86 83 83 87 82 86 85 89 90 91 92 92 90 83 84 83 81 82 83 82 83 85 88 90 89 90 88 85 85 83 84 84 80 76 73 71 70 70 70 69 68
78 77 79 86 80 82 85 88 90 92 96 90 87 91 96 91 89 91 88 86 85 80 80 84 86 87 89 91 88 91 88 86 86 87 85 82 76 74 73 72 73 73 72
91 91 95 90 92 101 95 102 96 100 104 102 100 93 96 93 90 88 89 90 88 88 86 83 83 88 89 87 91 90 85 85 86 85 87 86 83 76 74 77 77 76 75
98 101 105 107 107 107 108 106 108 109 112 109 107 106 105 104 102 103 102 97 97 95 93 92 91 89 89 91 90 85 86 85 86 86 83 83 84 80 75 73 77 78 77
90 91 92 91 92 96 98 99 100 103 105 105 107 109 112 108 106 108 106 105 102 105 101 97 97 98 93 96 96 95 91 86 83 82 83 84 79 80 78 75 77 80 79
79 79 80 81 81 82 83 86 89 95 102 106 105 103 103 106 106 109 110 112 111 106 106 107 105 102 100 98 100 99 95 94 92 85 81 78 80 78 76 78 79 78 80
70 71 72 74 75 76 77 78 80 83 86 89 92 97 100 101 100 102 105 108 109 111 112 110 108 109 105 102 102 102 100 97 90 90 88 84 81 83 80 79 81 82 83
67 70 72 74 75 77 78 78 79 81 80 81 82 84 87 86 89 93 98 102 105 107 106 108 113 114 111 109 109 107 105 102 97 96 92 89 93 85 81 84 81 82 85
69 70 72 74 76 78 78 79 80 80 80 81 81 83 84 84 85 89 93 96 97 98 98 100 101 105 107 108 110 111 111 103 105 102 100 94 91 92 94 78 84 80 81
68 71 74 76 78 78 78 76 75 75 74 75 75 75 77 79 81 85 89 94 97 97 95 92 91 91 95 101 103 107 108 105 108 109 106 101 97 93 96 87 81 82 74
70 73 74 75 73 73 73 71 69 66 60 54 50 51 55 61 65 68 71 77 83 89 92 92 91 91 91 92 95 97 99 102 105 107 109 106 102 99 97 95 95 83 85
69 68 69 68 68 66 62 57 51 44 42 47 51 52 54 59 62 64 64 67 69 69 69 73 80 87 90 90 92 94 95 96 98 101 104 104 104 103 102 99 96 102 91
63 65 65 62 56 56 55 50 42 45 48 49 49 49 55 49 49 56 63 67 67 67 67 67 68 69 71 78 85 89 95 97 95 91 92 94 100 103 104 103 97 99 97
61 61 55 50 48 46 48 48 47 50 46 46 47 46 43 39 43 49 50 53 60 67 70 70 68 67 69 69 70 76 83 91 95 92 89 86 89 95 99 100 98 97 98
56 50 44 40 36 35 39 42 45 40 43 44 45 45 44 44 47 48 51 48 47 51 54 59 63 61 58 60 62 61 66 76 85 88 87 86 87 86 89 91 93 94 94
49 39 36 33 34 32 34 37 34 36 38 41 40 41 43 43 43 45 50 44 42 42 42 44 48 56 55 52 51 53 55 62 72 80 82 82 85 85 84 84 84 85 87
39 35 31 32 31 30 33 34 34 34 35 38 40 39 40 37 38 43 48 39 36 36 35 34 36 40 46 48 47 45 45 53 61 68 73 76 78 82 83 79 76 80 83
34 32 32 31 31 31 31 33 34 35 37 38 38 38 39 39 39 42 46 36 32 31 28 27 27 30 34 37 39 44 46 49 54 59 63 67 71 74 78 79 76 78 81
32 31 31 30 31 30 31 32 32 34 35 36 38 37 35 35 35 38 43 38 31 29 27 23 21 24 27 32 37 39 41 42 45 50 54 59 64 67 71 75 75 75 74
30 30 29 29 30 30 31 33 34 35 35 35 36 37 37 33 33 32 34 36 32 27 25 22 18 15 17 24 31 35 37 38 38 41 45 49 55 58 62 68 70 72 70
28 28 27 27 28 30 32 34 37 38 37 37 37 38 36 35 31 30 29 30 30 30 25 22 20 16 14 14 17 20 23 26 29 32 35 39 44 47 53 58 62 63 63
24 25 25 26 27 29 32 35 38 40 41 40 40 38 37 34 32 28 26 26 26 26 27 23 19 17 15 14 15 17 18 19 21 24 27 29 33 38 43 48 51 56 60
22 22 23 25 27 29 32 35 38 40 41 42 43 41 38 35 31 29 24 22 22 22 23 21 19 16 14 12 11 11 12 15 18 21 21 20 22 28 35 39 44 50 51
19 20 22 24 27 30 33 36 39 40 42 42 41 40 37 33 30 28 24 21 20 19 19 20 19 15 10 8 9 9 9 13 14 18 20 23 26 30 32 34 36 40 45
17 18 20 23 26 29 32 35 37 39 40 38 36 33 31 31 29 28 26 20 18 18 18 19 18 16 12 7 8 8 6 7 14 21 19 19 26 28 30 31 32 33 35
Wind_Direction
266 263 265 268 270 269 268 266 266 268 269 267 266 265 263 262 261 261 259 256 256 256 256 254 255 257 257 259 261 261 261 262 261 261 263 262 261 260 258 259 260 261 263
268 266 266 268 273 273 270 271 270 265 267 264 262 264 267 263 266 267 264 263 262 260 260 260 257 256 256 257 258 260 260 260 261 260 261 260 260 259 258 258 259 260 263
268 267 267 268 269 269 264 266 264 265 263 264 262 267 269 264 262 264 265 267 265 263 264 264 262 261 259 259 259 258 258 259 259 259 259 260 259 260 259 257 258 259 259
273 272 274 271 269 273 273 273 270 268 271 272 272 266 264 262 261 263 264 265 265 265 264 265 265 265 266 265 263 260 258 258 259 259 258 257 259 258 258 257 256 257 258
274 273 273 274 275 274 275 274 272 272 273 273 273 273 272 272 269 268 272 270 268 267 266 267 269 268 267 267 263 260 259 257 257 256 255 256 255 255 256 258 257 255 255
277 277 278 278 277 277 276 275 274 273 274 275 275 274 271 272 273 274 274 273 269 265 266 267 267 268 266 265 266 264 257 257 257 259 258 256 254 254 253 255 255 254 252
279 279 279 279 279 278 277 276 275 274 273 273 273 273 272 272 272 271 271 271 270 267 265 265 265 264 264 261 261 262 262 261 259 256 256 258 258 256 254 254 254 254 252
288 288 287 287 286 285 283 282 280 278 277 276 274 274 274 273 271 269 268 267 266 267 266 264 263 263 261 260 257 258 259 259 257 256 256 252 253 254 256 255 252 253 248
290 290 290 289 288 287 286 285 284 283 281 280 278 277 275 273 272 270 269 267 266 265 264 263 264 262 260 260 258 255 255 256 257 254 254 253 251 249 251 252 255 255 254
291 291 290 290 289 288 288 287 286 285 284 282 280 278 275 274 271 270 269 269 268 266 263 261 260 259 259 258 257 256 254 253 253 254 253 250 250 249 249 252 246 252 254
294 293 293 293 293 293 293 292 290 289 287 286 284 282 280 278 274 271 269 268 268 267 265 262 260 259 257 256 255 254 254 252 250 251 251 251 250 248 249 247 249 245 248
294 295 297 297 299 298 298 296 295 293 293 292 290 290 289 285 281 277 273 271 268 266 264 263 262 259 256 254 255 255 254 252 249 248 248 248 248 249 248 250 245 244 248
298 300 299 302 303 304 303 301 298 296 296 301 302 296 296 293 286 280 277 272 270 270 268 265 261 258 256 253 251 252 253 252 250 249 246 244 245 245 246 246 246 248 243
303 302 304 305 306 306 306 302 296 296 301 304 304 298 306 300 297 289 280 275 272 268 267 266 265 263 260 256 251 247 247 249 250 250 248 246 243 241 242 243 244 245 247
305 303 305 305 306 308 308 305 298 300 300 304 305 305 311 310 311 310 302 288 277 270 267 265 263 263 260 256 254 250 246 246 247 248 247 246 245 242 241 241 240 240 243
303 302 301 302 307 317 322 315 312 308 307 312 313 310 310 314 313 312 313 305 294 284 275 267 260 257 258 257 255 253 249 245 244 245 245 244 244 243 242 241 241 239 239
302 296 297 300 309 321 330 334 324 317 313 316 320 320 315 312 314 316 318 311 303 294 284 275 263 254 252 254 255 253 250 246 243 241 242 241 239 241 241 242 240 239 238
294 293 292 304 312 322 328 332 339 332 317 312 315 320 325 321 320 321 323 315 312 305 296 286 273 257 249 247 246 244 244 245 242 241 240 239 238 237 239 241 240 239 236
286 287 295 305 314 322 328 332 335 333 334 334 323 314 320 323 321 323 330 321 318 316 308 295 281 262 249 243 246 247 247 249 246 242 240 239 238 236 236 238 238 237 238
281 285 295 304 312 320 328 330 334 332 332 331 333 333 318 321 321 324 333 334 327 327 324 312 295 271 255 250 248 246 250 253 250 245 241 239 237 236 235 235 237 238 238
276 283 294 303 311 320 326 329 333 334 332 331 333 331 333 326 323 324 329 342 340 333 330 325 309 290 266 258 257 256 255 254 250 245 242 241 239 237 236 235 236 238 238
269 281 291 301 309 319 325 327 331 332 333 334 332 331 331 332 326 324 325 332 343 347 341 333 321 305 287 273 264 257 252 250 248 246 243 241 240 239 237 236 236 238 236
264 278 289 299 310 319 324 328 330 330 331 332 333 331 329 327 326 319 321 321 332 338 344 346 339 323 305 286 274 263 256 251 246 243 240 237 237 237 235 235 235 235 232
260 275 288 299 311 318 323 326 329 329 330 331 331 329 328 325 318 319 310 312 315 327 336 338 339 337 331 322 309 287 267 253 244 228 227 228 232 235 233 231 232 234 234
260 276 291 304 313 319 323 326 328 329 330 331 332 331 329 326 323 324 320 303 306 309 318 328 333 332 322 327 315 294 260 243 232 211 214 214 218 222 224 225 228 232 236
261 280 295 307 313 319 324 327 328 331 333 335 336 334 331 330 333 339 341 325 306 305 309 318 327 331 329 307 326 348 331 268 230 214 222 219 216 219 220 221 225 230 234